{"data":{"norad_id":66973,"epoch":"2026-05-24T22:42:08.004672Z","epoch_age_seconds":79094,"freshness":"FRESH","line1":"1 66973U 25288Q   26144.94592598  .00019538  00000+0  71732-3 0  9992","line2":"2 66973  43.0015 312.4712 0002428 286.7089  73.3496 15.27594099 26957","mean_motion":15.27594099,"eccentricity":0.0002428,"inclination_deg":43.0015,"raan_deg":312.4712,"arg_perigee_deg":286.7089,"mean_anomaly_deg":73.3496,"bstar":0.00071732,"rev_number":2695,"period_min":94.265878674359,"perigee_km":481.34099315248,"apogee_km":484.67276462007,"semimajor_km":6861.1438788863,"source":"CELESTRAK","updated_at":"2026-05-25T13:38:21.423676Z"}}